Dewpoint
31 32 31 30 32 31 31 30 31 31 32 33 34 34 33 34 35 35 35 35 38 38
27 28 31 31 30 31 30 31 32 32 32 33 34 34 34 35 34 35 37 37 37 39
25 25 27 28 29 30 30 31 31 31 32 34 34 34 33 34 35 37 37 36 39 40
25 23 23 25 26 27 28 29 30 32 33 32 32 32 32 33 35 35 35 37 38 39
25 24 23 23 24 26 26 28 29 30 31 31 32 32 32 34 33 34 35 36 37 38
24 24 23 23 24 25 26 27 28 29 30 30 32 32 33 34 34 35 36 37 37 38
23 23 24 24 25 25 26 27 27 28 29 32 33 33 34 34 36 37 37 38 39 39
23 24 24 25 26 26 26 26 27 28 30 31 31 30 33 36 38 38 38 39 39 40
24 24 25 25 25 25 26 28 28 28 29 30 30 36 39 40 37 39 39 39 39 40
24 25 25 25 25 26 26 27 28 28 29 30 30 38 40 40 36 39 39 39 39 39
23 25 25 24 25 26 27 27 28 29 29 30 30 38 40 39 35 35 38 39 39 40
22 22 23 25 26 27 27 27 28 29 29 28 29 38 39 37 34 36 37 38 39 42
22 23 25 26 26 27 28 28 29 28 28 32 33 37 39 37 34 36 37 39 41 41
23 24 26 26 27 27 27 28 28 27 28 31 32 33 38 38 35 36 36 37 37 39
Lifted_Index
13 14 15 16 17 18 19 19 19 19 19 19 18 17 17 17 17 16 15 13 12 11
13 14 15 16 18 18 19 19 19 19 19 18 18 17 17 17 16 16 14 13 11 10
14 14 15 17 18 18 19 19 19 19 18 18 18 17 17 17 16 15 13 12 11 10
14 15 16 17 18 19 19 19 19 19 18 18 18 17 17 16 16 14 13 12 10 9
14 15 15 16 18 18 19 19 19 19 18 18 17 17 17 16 15 14 12 11 10 9
14 15 15 16 18 18 19 19 19 18 18 18 17 17 17 16 15 13 11 11 10 9
14 15 16 17 18 18 19 19 18 18 18 17 17 17 17 16 14 12 11 10 9 9
14 15 16 17 18 18 18 18 18 18 17 17 17 17 17 15 13 12 10 9 9 9
15 15 16 17 18 18 18 18 18 18 17 17 17 17 16 15 13 11 10 10 9 9
15 15 16 17 18 18 18 18 18 18 17 17 17 17 16 14 12 11 11 10 10 9
15 15 16 17 18 18 18 18 18 17 17 17 17 17 15 14 12 11 11 11 10 9
15 15 16 17 18 18 18 18 18 17 17 17 17 17 15 14 13 12 11 11 10 10
15 16 17 18 18 18 18 18 17 17 17 17 17 17 15 14 13 12 11 11 10 10
16 16 17 18 18 18 18 18 17 17 17 17 17 17 15 13 13 12 11 11 10 10